Location: Audinghen
(50.8518°N, 1.6129°E)
Time: 21:06:27
(UTC+00:00)

SL-4 R/B - Pass Details

Date: 07 August 2020
Orbit: 428 x 665 km, 51.6° (Epoch: 21 September)

Event Time Altitude Azimuth Distance (km) Brightness Sun altitude
Exits shadow 01:57:57 41° 265° (W) 645 2.1 -18.0°
Maximum altitude 01:58:57 65° 200° (SSW) 481 1.4 -17.9°
Drops below altitude 10° 02:02:19 10° 118° (ESE) 1,523 4.3 -17.6°
Sets 02:04:25 0° 116° (ESE) 2,388 5.4 -17.5°
